Regional Weather Roundup
Issued by NWS Cleveland, OH

Home | Current Version | Previous Version | Text Only | Print | Product List | Glossary Off
Versions: 1 2 3 4 5 6 7 8 9 10 11 12 13 14 15 16 17 18 19 20 21 22 23 24 25 26 27 28 29 30 31 32 33 34 35 36 37 38 39 40 41 42 43 44 45 46 47 48 49 50

000
ASUS41 KCLE 312210
RWRCLE
OHIO REGIONAL WEATHER ROUNDUP
NATIONAL WEATHER SERVICE WILMINGTON, OH
600 PM EDT THU JUL 31 2014

NOTE: "FAIR" INDICATES FEW OR NO CLOUDS BELOW 12,000 FEET WITH NO
SIGNIFICANT WEATHER AND/OR OBSTRUCTIONS TO VISIBILITY.

OHZ001>008-015>018-024>027-034-035-043-044-312300-
   NORTHWEST OHIO

CITY           SKY/WX    TMP DP  RH WIND       PRES   REMARKS
DEFIANCE       PTSUNNY   80  58  46 VRB6      30.04S
FINDLAY        MOSUNNY   81  57  43 SW13G18   30.04F
TOLEDO EXPRESS MOSUNNY   82  56  40 SW8       30.02F
TOLEDO METCALF MOSUNNY   82  56  40 SW14G21   30.03F
LIMA           MOSUNNY   80  58  46 W12       30.07S
$$

OHZ009>014-019>023-028>033-038-089-312300-
   NORTHEAST OHIO

CITY           SKY/WX    TMP DP  RH WIND       PRES   REMARKS
CLE-HOPKINS    MOSUNNY   77  53  43 SW6       30.09S
CLE-LAKEFRONT  SUNNY     76  52  43 CALM      30.05F
CUY CO. ARPT   MOSUNNY   77  54  44 W10       30.08F
LORAIN-ELYRIA  PTSUNNY   79  57  46 W5        30.07S
ASHTABULA      SUNNY     74  51  44 W6        30.09S
AKRON-CANTON   MOSUNNY   79  55  43 W10       30.09S
WOOSTER        MOSUNNY   78  55  44 W8        30.09S
MANSFIELD      MOSUNNY   78  56  46 SW8       30.09S
YOUNGSTOWN     MOSUNNY   76  53  44 W10       30.09S
$$

OHZ042-051>053-060>062-070>072-077>081-312300-
  SOUTHWEST OHIO

CITY           SKY/WX    TMP DP  RH WIND       PRES   REMARKS
CINC-COVINGTON PTSUNNY   81  59  47 W6        30.08S
CINC-LUNKEN    PTSUNNY   80  61  52 S6        30.06F
HAMILTON       SUNNY     81  60  48 VRB5      30.08S
DAYTON         MOSUNNY   81  58  45 W13G18    30.09S
WRIGHT-PAT AFB SUNNY     80  59  48 SW9       30.07S
DAYTON GENERAL MOSUNNY   80  58  46 NW7       30.07S
WILMINGTON     SUNNY     80  57  45 W8        30.09R
$$

OHZ036-037-039>041-045>050-054>059-063>069-073>076-082>088-312300-
  CENTRAL AND SOUTHEAST OHIO

CITY           SKY/WX    TMP DP  RH WIND       PRES   REMARKS
COLUMBUS       MOSUNNY   80  57  45 W8        30.07S
OSU AIRPORT    MOSUNNY   78  59  51 SW8       30.08S
BOLTON FIELD   SUNNY     79  63  57 SW8       30.09S
RICKENBACK AFB CLOUDY    81  56  42 W5        30.07S
NEWARK         MOSUNNY   80  58  46 VRB5      30.08S
MARION         SUNNY     79  56  45 W9        30.08S
LANCASTER      MOSUNNY   79  61  53 W8        30.09R
ZANESVILLE     MOSUNNY   79  60  52 W5        30.09R
NEW PHILLY     MOSUNNY   78  60  53 VRB6      30.09S
$$



USA.gov is the U.S. government's official web portal to all federal, state and local government web resources and services.